Tracking 28920 objects as of 24-May-2024
HD Live streaming from Space Station
objects crossing your sky now

STARLINK-2685

Track STARLINK-2685 now!
10-day predictions
STARLINK-2685 is classified as:


NORAD ID: 48468
Int'l Code: 2021-040AS
Perigee: 553.1 km
Apogee: 555.5 km
Inclination: 53.1 °
Period: 95.6 minutes
Semi major axis: 6925 km
RCS: Unknown
Launch date: May 9, 2021
Source: United States (US)
Launch site: AIR FORCE EASTERN TEST RANGE (AFETR)
Your satellite tracking list
Your tracking list is empty




NASA's NSSDC Master Catalog

Two Line Element Set (TLE):
1 48468U 21040AS  24144.59699163  .00014100  00000-0  96339-3 0  9999
2 48468  53.0548 252.4447 0001738  79.4987 280.6198 15.06406687169034
Source of the keplerian elements: AFSPC